STARLINK-30217, 57450

Orbit data source: Space-Track

STARLINK-30217, 57450 is a payload satellite owned by SpaceX/Seattle (US) in LEO that was launched on Mon, 24 Jul 2023 UTC via an FALCON 9 launch vehicle from the Air Force Eastern Test Range (AFETR). Payload-class satellites include a variety of spacecraft equipped with specific instruments for various scientific and technological missions. These include communications satellites like Starlink; space stations such as the ISS; scientific satellites like the Hubble; Earth observation satellites from companies like Planet Labs, Umbra, and HawkEye 360; GPS; miniature CubeSats for education and research; and military/defense satellites.

Loading next visibility...
Identifier
57450, 2023-105W
Orbit
LEO
Country
Flag of USUS
Related business
Manufacturer
SpaceX/Seattle
Mission
Operational Commercial Communications
Bus & Motor
STARLINK V2M, Unknown motor
Mass
730 kg wet, ~700 kg dry
Launch date (UTC)
2023-07-24 (3 years ago)
Launch vehicle
FALCON 9
Launch site
Air Force Eastern Test Range (AFETR)
Object type
Payload
Rocket body
Debris
Shape & HBR
Box + 2 Pan, 17.7 m
Radar Cross Section
33.884 m², Large (>1 m²)

Expand to show TLE details & history
Last TLE update: 2 days ago

TLE from 2 days ago
0 STARLINK-30217
1 57450U 23105W   26171.29424160  .00001128  00000-0  50474-4 0  9993
2 57450  42.9991  29.4239 0000878 292.0042  68.0717 15.27593191161402
Epoch: 2026-06-20T07:03Z
TLE epoch observation values (Epoch: 2026-06-20T07:03:42.474Z)
Latitude
0.00004°
Longitude
14.98604°
Altitude
482.56 km
Speed
7.626 km/s
True Right ascension
01h 57m 41s
True Declination
0° 00' 00"
Sunlit
Object was in daylight at epoch
Visualization orbit readout
Latitude
Unknown
Longitude
Unknown
Altitude
Unknown
Speed
Unknown
Apparent Right ascension
Unknown
Apparent Declination
Unknown
Sunlit
N/A
Visualization observer readout
Local Sidereal Time
21:33:01
Azimuth
Unknown
Elevation
Unknown
Doppler factor
Unknown
Orbital elements
Apogee altitude
485.558 km
Perigee altitude
484.352 km
Semi-major axis
6,863.092 km
Eccentricity
0.00009
Inclination
42.9991°
RAAN
29.4239°
Arg. of periapsis
292.0042°
True anomaly
68.08103°
Mean anomaly
68.0717°
Eccentric anomaly
68.07637°
Mean motion
3.81736 °/min
Orbital period
94.31 mins
BSTAR
0.000050474
Loading maneuver chart data...
Computing Atmospheric mass density...

Documentation

Showing up to 5 results
|